Weather History for Glasgow, United Kingdom

Change the Weather History Date:

Monday, March 18, 2013

  Actual Average Record
Temperature  
Mean Temperature 37 °F -  
Max Temperature 41 °F 50 °F 86 °F (1998)
Min Temperature 33 °F 36 °F 26 °F (2011)
Degree Days  
Heating Degree Days 28    
Moisture  
Dew Point 33 °F    
Average Humidity 85    
Maximum Humidity 100    
Minimum Humidity 75    
Precipitation  
Precipitation 0.00 in - - ()
Sea Level Pressure  
Sea Level Pressure 29.42 in    
Wind  
Wind Speed 12 mph ()    
Max Wind Speed 23 mph    
Max Gust Speed 31 mph    
Visibility 5.7 miles    
Events Rain , Snow    
Averages and records for this station are not official NWS values.
T = Trace of Precipitation, MM = Missing Value Source: Averaged Metar Reports

Daily Weather History Graph

Daily Weather History Graph

Search for Another Location

Airport:

Trip Planner

Search our weather history database for the weather conditions in past years. The results will help you decide how hot, cold, wet, or windy it might be!

Date:

Astronomy

Mar. 18, 2013 Rise Set
Actual Time 6:24 AM GMT 6:27 PM GMT
Civil Twilight 5:48 AM GMT 7:04 PM GMT
Nautical Twilight 5:04 AM GMT 7:48 PM GMT
Astronomical Twilight 4:18 AM GMT 8:34 PM GMT
Moon 9:11 AM GMT (3/18) 1:15 AM GMT (3/18)
Length of Visible Light 13h 16m
Length of Day
12h 02m
Waxing Crescent, 39% of the Moon is Illuminated
Mar 18
Waxing Crescent
Mar 19
First Quarter
Mar 27
Full
Apr 3
Last Quarter
Apr 10
New

Hourly Weather History & Observations

Time (GMT) Temp. Windchill Dew Point Humidity Pressure Visibility Wind Dir Wind Speed Gust Speed Precip Events Conditions
12:20 AM 35.6 °F - 33.8 °F 93% 29.27 in 5.6 mi Calm Calm - N/A Rain , Snow Light Rain
12:50 AM 35.6 °F - 35.6 °F 100% 29.27 in 6.2 mi Variable 2.3 mph - N/A Rain Light Rain
1:20 AM 39.2 °F 33.0 °F 37.4 °F 93% 29.27 in 6.2 mi East 9.2 mph - N/A Rain Light Rain
1:50 AM 39.2 °F 32.5 °F 37.4 °F 93% 29.27 in 6.2 mi East 10.4 mph - N/A Rain Light Rain
2:20 AM 41.0 °F 33.9 °F 37.4 °F 87% 29.27 in 3.1 mi East 12.7 mph - N/A Rain Light Rain
2:50 AM 41.0 °F 33.9 °F 37.4 °F 87% 29.27 in 3.1 mi ENE 12.7 mph - N/A Rain Light Rain
3:20 AM 41.0 °F 33.5 °F 37.4 °F 87% 29.27 in 6.2 mi ENE 13.8 mph - N/A Rain Light Rain
3:50 AM 41.0 °F 32.5 °F 37.4 °F 87% 29.27 in 6.2 mi ENE 17.3 mph - N/A Rain Light Rain
4:20 AM 41.0 °F 32.8 °F 37.4 °F 87% 29.27 in 6.2 mi ENE 16.1 mph - N/A   Overcast
4:50 AM 41.0 °F 32.5 °F 37.4 °F 87% 29.30 in 6.2 mi ENE 17.3 mph - N/A   Overcast
5:20 AM 39.2 °F 30.8 °F 35.6 °F 87% 29.30 in 6.2 mi ENE 15.0 mph - N/A   Overcast
5:50 AM 41.0 °F 33.1 °F 37.4 °F 87% 29.33 in 5.6 mi ENE 15.0 mph - N/A   Overcast
6:20 AM 41.0 °F 32.2 °F 37.4 °F 87% 29.33 in 5.6 mi East 18.4 mph - N/A   Overcast
6:50 AM 39.2 °F 30.2 °F 37.4 °F 93% 29.33 in 5.0 mi ENE 17.3 mph - N/A   Overcast
7:20 AM 39.2 °F 30.5 °F 37.4 °F 93% 29.36 in 5.6 mi ENE 16.1 mph - N/A   Overcast
7:50 AM 39.2 °F 30.8 °F 37.4 °F 93% 29.36 in 5.0 mi ENE 15.0 mph - N/A   Overcast
8:20 AM 41.0 °F 32.8 °F 35.6 °F 81% 29.36 in 5.6 mi East 16.1 mph - N/A Rain Light Rain
8:50 AM 39.2 °F 30.5 °F 35.6 °F 87% 29.39 in 5.6 mi East 16.1 mph - N/A   Mostly Cloudy
9:20 AM 41.0 °F 31.9 °F 35.6 °F 81% 29.39 in 5.6 mi East 19.6 mph - N/A   Mostly Cloudy
9:50 AM 41.0 °F 32.8 °F 35.6 °F 81% 29.39 in 5.6 mi ENE 16.1 mph - N/A   Mostly Cloudy
10:20 AM 39.2 °F 28.7 °F 33.8 °F 81% 29.42 in 5.6 mi East 23.0 mph - N/A   Mostly Cloudy
10:50 AM 39.2 °F 29.0 °F 33.8 °F 81% 29.42 in 5.6 mi East 21.9 mph - N/A   Mostly Cloudy
11:20 AM 39.2 °F 30.2 °F 33.8 °F 81% 29.42 in 5.6 mi ENE 17.3 mph - N/A   Mostly Cloudy
11:50 AM 37.4 °F 28.2 °F 33.8 °F 87% 29.44 in 4.3 mi ENE 16.1 mph - N/A Rain Light Rain
12:20 PM 37.4 °F 28.5 °F 35.6 °F 93% 29.44 in 4.3 mi ENE 15.0 mph - N/A Rain Light Rain
12:50 PM 37.4 °F 27.8 °F 33.8 °F 87% 29.44 in 5.0 mi ENE 17.3 mph - N/A Rain Light Rain
1:20 PM 37.4 °F 28.2 °F 33.8 °F 87% 29.47 in 5.6 mi ENE 16.1 mph - N/A Rain Light Rain
1:50 PM 37.4 °F 28.2 °F 33.8 °F 87% 29.47 in 5.0 mi ENE 16.1 mph - N/A Rain Light Rain
2:20 PM 37.4 °F 27.8 °F 32.0 °F 81% 29.47 in 4.3 mi ENE 17.3 mph - N/A   Mostly Cloudy
2:50 PM 37.4 °F 27.2 °F 32.0 °F 81% 29.47 in 6.2 mi ENE 19.6 mph - N/A   Mostly Cloudy
3:20 PM 37.4 °F 27.5 °F 32.0 °F 81% 29.47 in 6.2 mi ENE 18.4 mph - N/A   Mostly Cloudy
3:50 PM 37.4 °F 27.5 °F 32.0 °F 81% 29.47 in 6.2 mi ENE 18.4 mph 29.9 mph N/A   Mostly Cloudy
4:20 PM 37.4 °F 27.5 °F 30.2 °F 75% 29.50 in 6.2 mi NE 18.4 mph - N/A   Mostly Cloudy
4:50 PM 37.4 °F 26.9 °F 30.2 °F 75% 29.50 in 6.2 mi ENE 20.7 mph - N/A   Mostly Cloudy
5:20 PM 35.6 °F 24.8 °F 30.2 °F 81% 29.50 in 6.2 mi ENE 19.6 mph 31.1 mph N/A   Mostly Cloudy
5:50 PM 35.6 °F 25.5 °F 30.2 °F 81% 29.50 in 6.2 mi NE 17.3 mph - N/A   Mostly Cloudy
6:20 PM 35.6 °F 26.2 °F 30.2 °F 81% 29.50 in 6.2 mi ENE 15.0 mph - N/A   Overcast
6:50 PM 35.6 °F 26.2 °F 28.4 °F 75% 29.53 in 6.2 mi NE 15.0 mph - N/A   Mostly Cloudy
7:20 PM 35.6 °F 27.1 °F 30.2 °F 81% 29.53 in 6.2 mi ENE 12.7 mph - N/A   Overcast
7:50 PM 33.8 °F 24.3 °F 30.2 °F 87% 29.53 in 6.2 mi ENE 13.8 mph - N/A Snow Light Snow
8:20 PM 35.6 °F 26.2 °F 28.4 °F 75% 29.53 in 6.2 mi NE 15.0 mph - N/A Rain Light Rain
8:50 PM 33.8 °F 24.8 °F 28.4 °F 81% 29.53 in 6.2 mi NE 12.7 mph - N/A Rain Light Rain
9:20 PM 33.8 °F 24.8 °F 28.4 °F 81% 29.53 in 6.2 mi NE 12.7 mph - N/A Snow Light Snow
9:50 PM 33.8 °F 24.3 °F 28.4 °F 81% 29.53 in 6.2 mi NE 13.8 mph - N/A Snow Light Snow
10:20 PM 33.8 °F 24.3 °F 28.4 °F 81% 29.56 in 6.2 mi NE 13.8 mph - N/A Snow Light Snow
10:50 PM 33.8 °F 25.3 °F 28.4 °F 81% 29.56 in 6.2 mi NE 11.5 mph - N/A Snow Light Snow
11:20 PM 33.8 °F 23.9 °F 28.4 °F 81% 29.56 in 5.0 mi NE 15.0 mph - N/A Snow Light Drizzle
11:50 PM 33.8 °F 23.2 °F 28.4 °F 81% 29.53 in 5.0 mi NE 17.3 mph - N/A Snow Light Drizzle